Time,TemperatureF,DewpointF,PressureIn,WindDirection,WindDirectionDegrees,WindSpeedMPH,WindSpeedGustMPH,Humidity,HourlyPrecipIn,Conditions,Clouds,dailyrainin,SoftwareType,DateUTC
2013-07-30 00:08:00,77.5,45.0,29.75,NNW,347,0.0,5.0,32,0.00,,,0.00,weatherlink.com 1.10,2013-07-30 06:08:00,
2013-07-30 00:23:00,76.8,46.0,29.75,NNW,337,0.0,2.0,34,0.00,,,0.00,weatherlink.com 1.10,2013-07-30 06:23:00,
2013-07-30 00:38:00,75.9,47.0,29.74,NNW,337,0.0,0.0,36,0.00,,,0.00,weatherlink.com 1.10,2013-07-30 06:38:00,
2013-07-30 00:53:00,75.0,46.0,29.74,NNW,337,0.0,0.0,36,0.00,,,0.00,weatherlink.com 1.10,2013-07-30 06:53:00,
2013-07-30 01:08:00,74.2,47.0,29.74,NNW,337,0.0,0.0,38,0.00,,,0.00,weatherlink.com 1.10,2013-07-30 07:08:00,
2013-07-30 01:23:00,73.5,46.0,29.74,NNW,337,0.0,0.0,38,0.00,,,0.00,weatherlink.com 1.10,2013-07-30 07:23:00,
2013-07-30 01:38:00,73.3,47.0,29.74,NNW,337,0.0,0.0,39,0.00,,,0.00,weatherlink.com 1.10,2013-07-30 07:38:00,
2013-07-30 01:53:00,72.6,51.0,29.74,ESE,121,0.0,1.0,46,0.00,,,0.00,weatherlink.com 1.10,2013-07-30 07:53:00,
2013-07-30 02:08:00,70.5,49.0,29.74,South,176,0.0,2.0,47,0.00,,,0.00,weatherlink.com 1.10,2013-07-30 08:08:00,
2013-07-30 02:23:00,70.2,50.0,29.74,South,176,0.0,0.0,49,0.00,,,0.00,weatherlink.com 1.10,2013-07-30 08:23:00,
2013-07-30 02:38:00,69.5,50.0,29.74,South,176,0.0,0.0,51,0.00,,,0.00,weatherlink.com 1.10,2013-07-30 08:38:00,
2013-07-30 02:54:00,68.8,50.0,29.73,South,176,0.0,0.0,52,0.00,,,0.00,weatherlink.com 1.10,2013-07-30 08:54:00,
2013-07-30 03:09:00,67.8,50.0,29.74,South,176,0.0,0.0,54,0.00,,,0.00,weatherlink.com 1.10,2013-07-30 09:09:00,
2013-07-30 03:24:00,66.9,51.0,29.75,South,176,0.0,0.0,57,0.00,,,0.00,weatherlink.com 1.10,2013-07-30 09:24:00,
2013-07-30 03:39:00,66.5,50.0,29.75,South,176,0.0,0.0,56,0.00,,,0.00,weatherlink.com 1.10,2013-07-30 09:39:00,
2013-07-30 03:54:00,66.1,51.0,29.76,South,176,0.0,0.0,59,0.00,,,0.00,weatherlink.com 1.10,2013-07-30 09:54:00,
2013-07-30 04:09:00,65.6,52.0,29.75,South,176,0.0,0.0,61,0.00,,,0.00,weatherlink.com 1.10,2013-07-30 10:09:00,
2013-07-30 04:24:00,65.2,50.0,29.76,South,176,0.0,0.0,58,0.00,,,0.00,weatherlink.com 1.10,2013-07-30 10:24:00,
2013-07-30 04:39:00,65.0,50.0,29.76,South,176,0.0,0.0,59,0.00,,,0.00,weatherlink.com 1.10,2013-07-30 10:39:00,
2013-07-30 04:54:00,64.8,51.0,29.77,South,176,0.0,0.0,62,0.00,,,0.00,weatherlink.com 1.10,2013-07-30 10:54:00,
2013-07-30 05:09:00,64.3,51.0,29.77,South,176,0.0,0.0,62,0.00,,,0.00,weatherlink.com 1.10,2013-07-30 11:09:00,
2013-07-30 05:24:00,64.0,50.0,29.78,South,176,0.0,0.0,61,0.00,,,0.00,weatherlink.com 1.10,2013-07-30 11:24:00,
2013-07-30 05:39:00,63.9,51.0,29.79,South,176,0.0,0.0,63,0.00,,,0.00,weatherlink.com 1.10,2013-07-30 11:39:00,
2013-07-30 05:54:00,63.5,50.0,29.80,South,176,0.0,0.0,62,0.00,,,0.00,weatherlink.com 1.10,2013-07-30 11:54:00,
2013-07-30 06:09:00,63.1,50.0,29.80,South,176,0.0,0.0,62,0.00,,,0.00,weatherlink.com 1.10,2013-07-30 12:09:00,
2013-07-30 06:24:00,62.9,50.0,29.81,SE,128,0.0,0.0,62,0.00,,,0.00,weatherlink.com 1.10,2013-07-30 12:24:00,
2013-07-30 06:39:00,63.0,49.0,29.82,NNW,345,0.0,0.0,60,0.00,,,0.00,weatherlink.com 1.10,2013-07-30 12:39:00,
2013-07-30 06:54:00,63.4,50.0,29.82,NNE,23,0.0,0.0,61,0.00,,,0.00,weatherlink.com 1.10,2013-07-30 12:54:00,
2013-07-30 07:09:00,64.5,49.0,29.82,ESE,111,0.0,0.0,57,0.00,,,0.00,weatherlink.com 1.10,2013-07-30 13:09:00,
2013-07-30 07:24:00,66.4,51.0,29.83,ESE,110,0.0,0.0,58,0.00,,,0.00,weatherlink.com 1.10,2013-07-30 13:24:00,
2013-07-30 07:39:00,69.8,51.0,29.83,North,9,0.0,0.0,51,0.00,,,0.00,weatherlink.com 1.10,2013-07-30 13:39:00,
2013-07-30 07:54:00,72.0,50.0,29.84,North,11,0.0,2.0,46,0.00,,,0.00,weatherlink.com 1.10,2013-07-30 13:54:00,
2013-07-30 08:09:00,73.7,50.0,29.84,NNW,327,0.0,2.0,43,0.00,,,0.00,weatherlink.com 1.10,2013-07-30 14:09:00,
2013-07-30 08:24:00,74.4,50.0,29.84,North,355,0.0,4.0,42,0.00,,,0.00,weatherlink.com 1.10,2013-07-30 14:24:00,
2013-07-30 08:39:00,75.7,50.0,29.85,ENE,74,0.0,1.0,40,0.00,,,0.00,weatherlink.com 1.10,2013-07-30 14:39:00,
2013-07-30 08:54:00,75.7,50.0,29.85,WNW,296,3.0,6.0,40,0.00,,,0.00,weatherlink.com 1.10,2013-07-30 14:54:00,
2013-07-30 09:09:00,76.4,51.0,29.85,NNW,340,2.0,7.0,41,0.00,,,0.00,weatherlink.com 1.10,2013-07-30 15:09:00,
2013-07-30 09:24:00,76.9,50.0,29.85,North,355,0.0,5.0,39,0.00,,,0.00,weatherlink.com 1.10,2013-07-30 15:24:00,
2013-07-30 09:39:00,77.6,49.0,29.85,NNW,338,0.0,5.0,37,0.00,,,0.00,weatherlink.com 1.10,2013-07-30 15:39:00,
2013-07-30 09:54:00,78.0,49.0,29.85,NW,323,0.0,5.0,36,0.00,,,0.00,weatherlink.com 1.10,2013-07-30 15:54:00,
2013-07-30 10:09:00,79.1,48.0,29.85,ENE,67,0.0,2.0,34,0.00,,,0.00,weatherlink.com 1.10,2013-07-30 16:09:00,
2013-07-30 10:25:00,80.7,49.0,29.85,South,186,2.0,4.0,33,0.00,,,0.00,weatherlink.com 1.10,2013-07-30 16:25:00,
2013-07-30 10:40:00,82.0,50.0,29.84,SW,216,0.0,3.0,33,0.00,,,0.00,weatherlink.com 1.10,2013-07-30 16:40:00,
2013-07-30 10:55:00,83.2,50.0,29.84,SSE,163,0.0,6.0,31,0.00,,,0.00,weatherlink.com 1.10,2013-07-30 16:55:00,
2013-07-30 11:10:00,84.0,48.0,29.84,NNW,335,0.0,3.0,29,0.00,,,0.00,weatherlink.com 1.10,2013-07-30 17:10:00,
2013-07-30 11:25:00,84.6,49.0,29.84,WSW,243,0.0,5.0,29,0.00,,,0.00,weatherlink.com 1.10,2013-07-30 17:25:00,
2013-07-30 11:40:00,86.5,48.0,29.84,ENE,76,0.0,2.0,26,0.00,,,0.00,weatherlink.com 1.10,2013-07-30 17:40:00,
2013-07-30 11:55:00,86.8,49.0,29.83,South,186,0.0,5.0,27,0.00,,,0.00,weatherlink.com 1.10,2013-07-30 17:55:00,
2013-07-30 12:10:00,87.6,49.0,29.83,SSW,204,5.0,5.0,26,0.00,,,0.00,weatherlink.com 1.10,2013-07-30 18:10:00,
2013-07-30 12:25:00,88.2,49.0,29.82,SW,223,1.0,7.0,26,0.00,,,0.00,weatherlink.com 1.10,2013-07-30 18:25:00,
2013-07-30 12:40:00,89.0,49.0,29.82,SSE,160,3.0,5.0,25,0.00,,,0.00,weatherlink.com 1.10,2013-07-30 18:40:00,
2013-07-30 12:55:00,89.7,48.0,29.81,SSW,200,0.0,5.0,24,0.00,,,0.00,weatherlink.com 1.10,2013-07-30 18:55:00,
2013-07-30 13:10:00,89.0,48.0,29.81,South,177,0.0,4.0,24,0.00,,,0.00,weatherlink.com 1.10,2013-07-30 19:10:00,
2013-07-30 13:25:00,89.2,48.0,29.80,SSW,213,0.0,5.0,24,0.00,,,0.00,weatherlink.com 1.10,2013-07-30 19:25:00,
2013-07-30 13:40:00,90.1,44.0,29.80,SW,225,3.0,8.0,20,0.00,,,0.00,weatherlink.com 1.10,2013-07-30 19:40:00,
2013-07-30 13:55:00,90.4,45.0,29.79,SW,218,0.0,5.0,21,0.00,,,0.00,weatherlink.com 1.10,2013-07-30 19:55:00,
2013-07-30 14:10:00,91.0,42.0,29.79,SSW,201,0.0,11.0,18,0.00,,,0.00,weatherlink.com 1.10,2013-07-30 20:10:00,
2013-07-30 14:25:00,91.5,44.0,29.78,West,264,0.0,6.0,19,0.00,,,0.00,weatherlink.com 1.10,2013-07-30 20:25:00,
2013-07-30 14:40:00,91.0,45.0,29.78,SW,232,0.0,11.0,20,0.00,,,0.00,weatherlink.com 1.10,2013-07-30 20:40:00,
2013-07-30 14:55:00,91.6,45.0,29.77,WSW,257,3.0,5.0,20,0.00,,,0.00,weatherlink.com 1.10,2013-07-30 20:55:00,
2013-07-30 15:10:00,92.7,46.0,29.76,South,176,3.0,8.0,20,0.00,,,0.00,weatherlink.com 1.10,2013-07-30 21:10:00,
2013-07-30 15:25:00,93.9,46.0,29.75,West,276,3.0,9.0,19,0.00,,,0.00,weatherlink.com 1.10,2013-07-30 21:25:00,
2013-07-30 15:40:00,94.7,45.0,29.75,West,266,0.0,4.0,18,0.00,,,0.00,weatherlink.com 1.10,2013-07-30 21:40:00,
2013-07-30 15:55:00,93.0,44.0,29.75,NNE,32,0.0,12.0,18,0.00,,,0.00,weatherlink.com 1.10,2013-07-30 21:55:00,
2013-07-30 16:10:00,93.6,44.0,29.74,SW,229,0.0,5.0,18,0.00,,,0.00,weatherlink.com 1.10,2013-07-30 22:10:00,
2013-07-30 16:25:00,94.0,46.0,29.74,WSW,243,2.0,10.0,19,0.00,,,0.00,weatherlink.com 1.10,2013-07-30 22:25:00,
2013-07-30 16:40:00,94.0,44.0,29.73,WSW,246,4.0,10.0,18,0.00,,,0.00,weatherlink.com 1.10,2013-07-30 22:40:00,
2013-07-30 16:55:00,94.5,46.0,29.73,WSW,258,3.0,8.0,19,0.00,,,0.00,weatherlink.com 1.10,2013-07-30 22:55:00,
2013-07-30 17:10:00,93.8,44.0,29.72,WSW,240,2.0,6.0,18,0.00,,,0.00,weatherlink.com 1.10,2013-07-30 23:10:00,
2013-07-30 17:25:00,94.7,45.0,29.72,SSW,205,0.0,4.0,18,0.00,,,0.00,weatherlink.com 1.10,2013-07-30 23:25:00,
2013-07-30 17:40:00,94.2,45.0,29.72,West,276,0.0,9.0,18,0.00,,,0.00,weatherlink.com 1.10,2013-07-30 23:40:00,
2013-07-30 17:55:00,94.6,43.0,29.72,WSW,258,0.0,8.0,17,0.00,,,0.00,weatherlink.com 1.10,2013-07-30 23:55:00,
2013-07-30 18:10:00,93.5,44.0,29.71,WSW,258,1.0,7.0,18,0.00,,,0.00,weatherlink.com 1.10,2013-07-31 00:10:00,
2013-07-30 18:25:00,93.5,44.0,29.71,West,262,0.0,10.0,18,0.00,,,0.00,weatherlink.com 1.10,2013-07-31 00:25:00,
2013-07-30 18:40:00,93.6,43.0,29.70,North,350,0.0,3.0,17,0.00,,,0.00,weatherlink.com 1.10,2013-07-31 00:40:00,
2013-07-30 18:55:00,93.9,44.0,29.70,SW,226,0.0,5.0,18,0.00,,,0.00,weatherlink.com 1.10,2013-07-31 00:55:00,
2013-07-30 19:10:00,93.0,46.0,29.70,WSW,238,0.0,4.0,20,0.00,,,0.00,weatherlink.com 1.10,2013-07-31 01:10:00,
2013-07-30 19:25:00,90.4,47.0,29.70,SW,220,0.0,6.0,22,0.00,,,0.00,weatherlink.com 1.10,2013-07-31 01:25:00,
2013-07-30 19:41:00,89.3,48.0,29.70,SSW,195,1.0,4.0,24,0.00,,,0.00,weatherlink.com 1.10,2013-07-31 01:41:00,
2013-07-30 19:56:00,86.9,49.0,29.71,South,177,2.0,5.0,27,0.00,,,0.00,weatherlink.com 1.10,2013-07-31 01:56:00,
2013-07-30 20:11:00,85.4,48.0,29.71,South,190,2.0,6.0,27,0.00,,,0.00,weatherlink.com 1.10,2013-07-31 02:11:00,
2013-07-30 20:26:00,84.4,49.0,29.71,SSE,167,0.0,5.0,29,0.00,,,0.00,weatherlink.com 1.10,2013-07-31 02:26:00,
2013-07-30 20:41:00,83.7,48.0,29.72,South,188,3.0,4.0,29,0.00,,,0.00,weatherlink.com 1.10,2013-07-31 02:41:00,
2013-07-30 20:56:00,83.2,49.0,29.72,South,186,0.0,0.0,30,0.00,,,0.00,weatherlink.com 1.10,2013-07-31 02:56:00,
2013-07-30 21:11:00,82.3,50.0,29.73,SSW,196,0.0,0.0,32,0.00,,,0.00,weatherlink.com 1.10,2013-07-31 03:11:00,
2013-07-30 21:26:00,80.9,50.0,29.73,South,190,0.0,0.0,34,0.00,,,0.00,weatherlink.com 1.10,2013-07-31 03:26:00,
2013-07-30 21:41:00,79.9,51.0,29.73,South,190,0.0,0.0,36,0.00,,,0.00,weatherlink.com 1.10,2013-07-31 03:41:00,
2013-07-30 21:56:00,78.9,50.0,29.74,South,190,0.0,0.0,36,0.00,,,0.00,weatherlink.com 1.10,2013-07-31 03:56:00,
2013-07-30 22:11:00,78.2,50.0,29.75,South,190,0.0,0.0,38,0.00,,,0.00,weatherlink.com 1.10,2013-07-31 04:11:00,
2013-07-30 22:26:00,77.5,51.0,29.75,South,190,0.0,0.0,39,0.00,,,0.00,weatherlink.com 1.10,2013-07-31 04:26:00,
2013-07-30 22:41:00,76.7,51.0,29.75,South,190,0.0,0.0,41,0.00,,,0.00,weatherlink.com 1.10,2013-07-31 04:41:00,
2013-07-30 22:56:00,76.2,50.0,29.76,South,190,0.0,0.0,40,0.00,,,0.00,weatherlink.com 1.10,2013-07-31 04:56:00,
2013-07-30 23:11:00,76.0,50.0,29.76,South,190,0.0,0.0,40,0.00,,,0.00,weatherlink.com 1.10,2013-07-31 05:11:00,
2013-07-30 23:26:00,76.0,50.0,29.76,South,188,0.0,0.0,40,0.00,,,0.00,weatherlink.com 1.10,2013-07-31 05:26:00,
2013-07-30 23:41:00,75.7,50.0,29.76,South,188,0.0,0.0,41,0.00,,,0.00,weatherlink.com 1.10,2013-07-31 05:41:00,
2013-07-30 23:56:00,75.9,51.0,29.76,East,97,0.0,0.0,42,0.00,,,0.00,weatherlink.com 1.10,2013-07-31 05:56:00,